Location: La Granja
(40.9018°N, 4.0069°W)
Time: 15:14:09
(UTC+00:00)

Daily predictions for brighter satellites

Satellite Brightness Start Highest point End
(mag) Time Altitude Azimuth Time Altitude Azimuth Time Altitude Azimuth
Cosmos 2369 4.2 17:14:11 10° S 17:19:33 43° ESE 17:24:55 10° NE
IRIDIUM 104 4.4 17:14:36 10° N 17:19:52 90° ESE 17:25:05 10° S
Cosmos-2242 3.9 17:17:37 10° SSE 17:21:16 29° E 17:24:56 10° NNE
CZ-2D R/B 3.9 17:19:39 10° SE 17:22:11 23° ENE 17:24:44 10° NNE
Meteor 1-5 Rocket 4.2 17:18:19 10° N 17:23:41 58° ENE 17:29:11 10° SSE
SL-16 R/B 3.0 17:20:11 10° N 17:26:20 67° WNW 17:32:26 10° SSW
Hubble Space Telescope 3.3 17:27:00 10° SSW 17:28:34 12° S 17:30:07 10° SSE
Cosmos 2227 Rocket 2.5 17:23:27 10° NNW 17:29:06 74° WSW 17:34:43 10° SSE
SMAP 3.1 17:25:15 10° SSE 17:29:49 60° ENE 17:34:25 10° N
Landsat 7 3.9 17:28:28 10° SSE 17:32:57 50° ENE 17:37:27 10° N
SJ-12 4.3 17:29:34 10° SE 17:33:02 36° ENE 17:36:31 10° N
Cosmos 1697 Rocket 4.0 17:27:53 10° SW 17:33:02 37° WNW 17:38:14 10° N
Cosmos 1606 Rocket 4.2 17:29:48 10° SSW 17:34:09 59° W 17:38:32 10° N
Cosmos 2058 Rocket 3.4 17:30:51 10° SSE 17:35:06 46° E 17:39:24 10° NNE
Aureole 1 Rocket 3.6 17:35:14 10° SSW 17:39:47 79° WNW 17:45:38 10° NNE
Meteor 1-28 Rocket 4.3 17:37:47 10° N 17:40:55 38° WNW 17:44:00 10° SW
ARIANE 5 R/B 2.5 17:38:00 10° SSE 17:42:59 61° ENE 17:48:04 10° N
SL-24 R/B - RUBIN 2 4.1 17:39:14 10° SSW 17:44:41 62° ESE 17:49:24 11° NE
COSMOS 2455 3.2 17:40:12 10° S 17:45:53 46° ESE 17:51:27 11° NE
MOS 1 Rocket 3.6 17:42:34 10° SSE 17:47:26 54° ENE 17:52:33 10° N
Cosmos 1680 Rocket 4.3 17:44:56 10° N 17:49:25 28° ENE 17:53:53 10° ESE
Okean 1 3.2 17:46:21 10° S 17:49:48 49° E 17:53:17 10° NNE
GEOS 3 Rocket 3.7 17:44:31 10° NE 17:49:56 80° SE 17:55:17 10° SSW
USA 308 2.1 17:49:16 10° SW 17:52:04 83° SE 17:54:45 18° NE
Cosmos 2333 Rocket 3.4 17:49:32 10° SSE 17:53:54 23° E 17:56:36 16° ENE
Cosmos 1655 Rocket 4.0 17:48:27 10° N 17:54:43 89° WSW 18:00:56 10° S
Cosmos 2322 Rocket 3.6 17:51:50 10° SE 17:55:29 18° E 17:56:56 16° E
YAOGAN 1 3.4 17:59:52 10° SE 18:03:27 27° ENE 18:07:03 10° NNE
SAR-Lupe-4 4.0 18:09:39 10° S 18:13:09 63° WSW 18:16:41 10° NNW
Cosmos 1844 4.5 18:09:19 10° N 18:14:04 28° NE 18:15:46 24° E
COSMO-SKYMED 1 2.9 18:13:54 24° NE 18:15:49 39° E 18:19:41 10° SSE
SPOT 1/Viking Rocket 3.5 18:12:24 10° SSE 18:17:32 63° ENE 18:22:40 10° N
Lacrosse 5 rocket 3.5 18:17:23 10° N 18:17:25 10° N 18:17:25 10° N
USA 81 4.1 18:14:14 10° N 18:19:30 79° W 18:24:45 10° S
Cosmos 2082 3.7 18:13:55 10° NNW 18:19:40 86° ENE 18:25:23 10° SSE
AQUARIUS 4.4 18:17:26 10° S 18:21:48 68° W 18:26:13 10° NNW
Meteor 1-14 Rocket 4.5 18:21:05 10° N 18:26:30 43° ENE 18:31:47 10° SSE
SL-16 R/B 2.2 18:21:53 10° S 18:27:26 60° ESE 18:30:45 24° NE
Cosmos 1553 Rocket 4.0 18:21:26 10° S 18:27:37 90° E 18:33:56 10° N
Cosmos 1805 3.7 18:25:49 10° NNW 18:29:06 51° W 18:32:20 10° S
CZ-4 R/B 4.2 18:25:31 10° SSE 18:29:26 86° ENE 18:33:24 10° NNW
S3M 4.3 18:24:02 10° SSE 18:29:58 44° E 18:34:54 15° NNE
Nadezhda 2 Rocket 4.4 18:24:09 10° N 18:30:17 85° E 18:36:23 10° S
Cosmos 44 Rocket 3.8 18:26:24 10° NNW 18:31:15 40° NE 18:32:17 36° E
Cosmos 2221 2.5 18:28:09 10° SSE 18:32:11 50° E 18:32:53 44° ENE
IRAS Rocket 4.4 18:27:24 10° SE 18:32:36 47° ENE 18:37:50 10° N
SKYMED 2 3.6 18:29:52 11° N 18:33:58 80° WNW 18:38:18 10° SSW
Cosmos 2227 4.3 18:28:34 10° NNW 18:34:02 49° ENE 18:38:09 17° SE
Cosmos 2237 4.5 18:28:36 10° SSW 18:34:17 69° WNW 18:39:07 15° NNE
Meteor 2-9 Rocket 4.5 18:29:45 10° N 18:34:42 38° ENE 18:39:36 10° SE
Cosmos 1536 2.5 18:32:12 10° N 18:35:53 61° E 18:39:32 10° SSE
Cosmos 1844 Rocket 2.9 18:32:28 10° NNW 18:37:55 46° ENE 18:40:13 30° ESE
Cosmos 1980 Rocket 4.1 18:34:26 10° WSW 18:39:03 25° NW 18:43:41 10° N
NOSS 3-1 (C) 3.2 18:35:31 10° S 18:39:40 39° ESE 18:39:48 39° ESE
Meteor 2-6 Rocket 4.2 18:34:14 10° S 18:39:56 87° E 18:45:50 10° N
H-2A R/B 3.8 18:39:25 10° SSW 18:41:53 18° SSE 18:44:37 14° SE
Cosmos 1709 Rocket 4.2 18:37:21 10° N 18:43:08 42° ENE 18:48:54 10° SSE
Meteor 1-19 Rocket 4.3 18:39:34 10° SSE 18:44:45 49° E 18:45:54 42° ENE
Spot 4 Rocket 3.9 18:40:19 10° SSE 18:45:25 79° ENE 18:50:33 10° N
Cosmos 2263 Rocket 4.2 18:42:12 10° NW 18:47:02 29° WSW 18:51:52 10° SSW
Cosmos 1745 Rocket 3.8 18:42:21 10° N 18:48:27 64° E 18:54:30 10° SSE
Cosmos 2219 4.4 18:43:35 10° NW 18:48:59 43° WSW 18:54:22 10° S
Meteor 1-10 Rocket 4.3 18:44:30 10° SSE 18:49:57 52° E 18:51:06 45° ENE
Cosmos 1812 Rocket 3.3 18:47:38 10° S 18:51:56 84° E 18:52:41 60° NNE
Cosmos 2112 Rocket 3.8 18:47:28 10° NNW 18:52:43 82° ENE 18:57:58 10° SSE
Cosmos 2278 3.6 18:48:58 10° SSW 18:54:39 88° ESE 18:57:02 37° NNE
OceanSat 1 rocket 4.4 18:54:19 10° SSE 18:59:02 79° ENE 19:03:44 10° N
USA 59 Rocket 0.2 18:55:28 10° SSW 18:58:36 51° SSW 18:58:36 51° SSW
Cosmos 494 Rocket 3.8 18:57:00 10° NNW 19:02:17 83° ENE 19:05:17 26° SSE
CZ-2D R/B 4.3 19:01:00 10° S 19:05:02 50° W 19:09:03 10° NNW
NOSS 2-1 (D) 4.0 19:01:18 10° SSW 19:04:20 45° SW 19:04:20 45° SW
Helios 1A Rocket 4.1 19:07:35 28° SSW 19:07:35 28° SSW 19:09:21 10° SSW
Cosmos 1417 Rocket 4.5 19:00:21 10° S 19:06:31 81° W 19:12:32 11° N
Cosmos 2360 Rocket 2.1 19:05:15 10° SSW 19:10:45 69° ESE 19:10:45 69° ESE
SL-8 R/B 4.5 19:12:11 10° SW 19:15:40 43° S 19:15:40 43° S
Cosmos 2219 Rocket 3.4 19:18:22 10° S 19:21:08 28° SSE 19:21:08 28° SSE
COSMOS 2455 4.3 19:26:39 10° WSW 19:31:57 32° NW 19:34:36 23° N
BREEZE-M DEB (TANK) 3.6 19:28:40 10° WSW 19:34:52 54° NW 19:34:52 54° NW
Cosmos 2333 Rocket 2.9 19:32:12 10° SW 19:37:47 51° WNW 19:38:40 47° NNW
Cosmos 2322 Rocket 2.5 19:33:17 10° SW 19:38:48 63° WNW 19:38:48 63° WNW
SL-16 R/B 4.2 20:07:39 10° WSW 20:11:56 22° NW 20:12:38 21° NW
